Location: La Sioule Rivi�re
(46.3664°N, 3.3197°E)
Time: 12:23:55
(UTC+00:00)

Aureole 3 - Pass Details

Date: 29 October 2020
Orbit: 382 x 1232 km, 82.5° (Epoch: 23 November)

Event Time Altitude Azimuth Distance (km) Brightness Sun altitude
Rises 17:29:39 0° 180° (S) 2,375 6.7 -9.8°
Reaches altitude 10° 17:31:45 10° 176° (S) 1,457 5.6 -10.2°
Maximum altitude 17:34:46 58° 97° (E) 458 2.6 -10.7°
Drops below altitude 10° 17:37:43 10° 17° (NNE) 1,418 5.2 -11.2°
Sets 17:39:43 0° 13° (NNE) 2,302 6.3 -11.5°
